Regional Weather Roundup
Issued by NWS

Home | Current Version | Previous Version | Graphics & Text | Print | Product List | Glossary On
Versions: 1 2 3 4 5 6 7 8 9 10 11 12 13 14 15 16 17 18 19 20 21 22 23 24 25 26 27 28 29 30 31 32 33 34 35 36 37 38 39 40 41 42 43 44 45 46 47 48 49 50
000
ASUS43 KFSD 011002
RWRSD

WEATHER ROUNDUP FOR SOUTH DAKOTA
NATIONAL WEATHER SERVICE SIOUX FALLS SD
500 AM CDT WED OCT 01 2014

NOTE: "FAIR" INDICATES FEW OR NO CLOUDS BELOW 12,000 FEET WITH NO
SIGNIFICANT WEATHER AND/OR OBSTRUCTIONS TO VISIBILITY.


SDZ001>005-009-010-012>017-011100-
NORTHWEST AND NORTH CENTRAL SOUTH DAKOTA

CITY           SKY/WX    TMP DP  RH WIND       PRES   REMARKS
BUFFALO          N/A     50  48  93 SW10      29.65R
FAITH            N/A     54  48  80 W18       29.67R
MOBRIDGE       PTCLDY    57  52  83 SW10      29.61R
$$

SDZ012>016-024>037-041>051-057-063-072>074-011100-
SOUTHWEST AND SOUTH CENTRAL SOUTH DAKOTA

CITY           SKY/WX    TMP DP  RH WIND       PRES   REMARKS
RAPID CTY ARPT MOCLDY    51  46  83 W5        29.76R
PIERRE         MOCLDY    55  47  74 SW8       29.67R
CUSTER         CLOUDY    44  40  85 W5        29.82S
ELLSWORTH AFB  CLOUDY    55  47  76 NW13      29.75R
PHILIP         MOCLDY    50  45  83 W5        29.71S
PINE RIDGE     MOCLDY    49  45  86 W3        29.78R
WINNER         CLOUDY    55  47  74 W6        29.71R
$$

SDZ004>011-016>023-039-040-011100-
NORTHEAST SOUTH DAKOTA

CITY           SKY/WX    TMP DP  RH WIND       PRES   REMARKS
ABERDEEN       PTCLDY    56  50  80 S9        29.66R
WATERTOWN      CLOUDY    61  59  93 S9        29.69S
SISSETON         N/A     60  59  96 S8        29.65R
$$

SDZ017-020-022-023-036>040-048>070-011100-
SOUTHEAST SOUTH DAKOTA

CITY           SKY/WX    TMP DP  RH WIND       PRES   REMARKS
SIOUX FALLS    DRIZZLE   63  61  93 S8        29.71F FOG
HURON          PTCLDY    60  59  96 S6        29.68R
CHAMBERLAIN    CLOUDY    51  49  92 CALM      29.70R
MITCHELL       MOCLDY    63  61  93 S6        29.68S
YANKTON        CLOUDY    64  61  88 S8        29.70S
$$

ABBREVIATIONS USED IN REMARKS
   TC - TEMPERATURE IN CELSIUS
  WCI - WIND CHILL INDEX
   HX - HEAT INDEX
  VSB - VISIBILITY



USA.gov is the U.S. government's official web portal to all federal, state and local government web resources and services.